Regional Weather Roundup
Issued by NWS Wakefield, VA

Home | Current Version | Previous Version | Graphics & Text | Print | Product List | Glossary On
Versions: 1 2 3 4 5 6 7 8 9 10 11 12 13 14 15 16 17 18 19 20 21 22 23 24 25 26 27 28 29 30 31 32 33 34 35 36 37 38 39 40 41 42 43 44 45 46 47 48 49 50
000
ASUS41 KAKQ 051615
RWRAKQ

REGIONAL WEATHER ROUNDUP
NATIONAL WEATHER SERVICE WAKEFIELD VA
1200 PM EDT SUN JUL 05 2015

Note: "fair" indicates few or no clouds below 12,000 feet with no
significant weather and/or obstructions to visibility. * = Denotes
station may not report precipitation (e.g., rain,snow,etc.),
thunder or fog.

VAZ042-051-052>054-056-051700-
NORTHERN VIRGINIA

CITY           SKY/WX    TMP DP  RH WIND       PRES   REMARKS
WASH NATIONAL  PTSUNNY   81  68  64 CALM      30.15F
DULLES         PTSUNNY   75  68  78 NW3       30.16S
FORT BELVOIR   MOSUNNY   78  68  72 SE2       30.15F
QUANTICO       MOSUNNY   76  68  76 S3        30.16S
FREDERICKSBRG* PTSUNNY   80  73  79 E5        30.15S
STAFFORD*      CLOUDY    76  68  77 CALM      30.20S
WARRENTON      CLOUDY    74  71  91 SE3       30.16S
CULPEPER*      CLOUDY    72  69  88 CALM      30.17S
MANASSAS*      NOT AVBL
LEESBURG*      PTSUNNY   73  70  88 S5        30.18S
WINCHESTER     PTSUNNY   77  68  73 SE5       30.17S
FRONT ROYAL*   FAIR      73  68  83 NE3       30.15F
LURAY*         CLOUDY    77  70  78 CALM      30.16F
$$

VAZ048-049-060>072-079>083-051700-
CENTRAL AND SOUTH CENTRAL VIRGINIA

CITY           SKY/WX    TMP DP  RH WIND       PRES   REMARKS
RICHMOND       PTSUNNY   81  71  71 E3        30.15S
CHESTERFIELD*  NOT AVBL
PETERSBURG*    CLOUDY    82  75  81 NE5       30.15S
HANOVER        PTSUNNY   77  70  79 VRB5      30.17S
TAPPAHANNOCK*  CLOUDY    78  70  74 E5        30.17R
QUINTON*       NOT AVBL
CHARLOTTSVILLE CLOUDY    74  69  85 NE6       30.17S
GORDONSVILLE*  CLOUDY    72  70  94 N6        30.16F
ORANGE*        CLOUDY    72  70  94 CALM      30.18S FOG
LOUISA*        CLOUDY    75  70  83 E7        30.16S HAZE
BUMPASS*       CLOUDY    74  70  87 CALM      30.16F
FARMVILLE*     CLOUDY    79  70  74 E5        30.14S
CREWE*         CLOUDY    78  71  80 E3        30.15S
FORT PICKETT*  CLOUDY    80  73  79 NE5       30.14S
CHASE CITY*    PTSUNNY   82  75  78 CALM      30.14S
CLARKSVILLE*   FAIR      81  72  74 CALM      30.13S
SOUTH HILL*    CLOUDY    82  72  73 CALM      30.19S
LAWRENCEVILLE* NOT AVBL
EMPORIA*         N/A     82  72  69 E3        30.14S
$$

VAZ088>098-051700-
SOUTHEAST VIRGINIA

CITY           SKY/WX    TMP DP  RH WIND       PRES   REMARKS
NORFOLK        MOSUNNY   82  71  69 NE12      30.14S
VIRGINIA BEACH PTSUNNY   83  71  67 E12       30.14R
NORFOLK NAVAL  PTSUNNY   81  72  74 E10       30.15S
WEST POINT*    PTSUNNY   83  70  64 E6        30.16S
SALUDA*        FAIR      78  71  80 E8        30.15S
NEWPORT NEWS   SUNNY     83  73  72 E10       30.14S
LANGLEY AFB    MOSUNNY   82  73  76 NE9       30.13R
FORT EUSTIS    MOSUNNY   84  79  84 VRB6      30.12S HX  96
WILLIAMSBURG*  MOSUNNY   86  75  70 CALM      30.14F HX  95
HR EXEC AP*    FAIR      84  73  70 NE5       30.15S
FRANKLIN*      PTSUNNY   83  71  67 NE7       30.13S
WAKEFIELD      MOSUNNY   82  72  71 VRB5      30.13S
$$

VAZ020-022-025-037-045-051700-
WEST CENTRAL AND SOUTHWEST VIRGINIA

CITY           SKY/WX    TMP DP  RH WIND       PRES   REMARKS
STAUNTON*      PTSUNNY   77  69  75 CALM      30.19S
WAYNESBORO*    FAIR      74  67  79 SE8       30.19R
HOT SPRINGS VA CLOUDY    67  67 100 SE5       30.26S FOG
LYNCHBURG      CLOUDY    73  70  90 NE7       30.18R
DANVILLE       CLOUDY    78  70  76 E6        30.14S
SOUTH BOSTON*  FAIR      79  72  78 MISG      30.14R
MARTINSVILLE   CLOUDY    79  72  78 E5        30.17S
ROANOKE        CLOUDY    74  68  81 SE6       30.18S
BLACKSBURG     CLOUDY    74  69  85 E8        30.22S
DUBLIN*        CLOUDY    75  70  85 E3        30.19F
MARION*        CLOUDY    76  69  79 E6        30.19F
HILLSVILLE*    CLOUDY    74  67  79 E7        30.19S
RICHLANDS*     PTSUNNY   74  67  77 SE6       30.16F
WISE*          PTSUNNY   75  63  64 SE6       30.16S
ABINGDON*      MOSUNNY   79  69  70 SE6       30.12F
$$

MDZ021>025-VAZ099-100-051700-
SOUTHERN MARYLAND AND THE DELMARVA PENINSULA

CITY           SKY/WX    TMP DP  RH WIND       PRES   REMARKS
PATUXENT RIVER CLOUDY    77  68  73 SE8       30.15S
BAY BRIDGE APT   N/A     75  66  73 NW6       30.16S
LEONARDTOWN    CLOUDY    77  68  73 E3        30.17S
DOVER          MOSUNNY   78  69  72 E7        30.15R
GEORGETOWN     MOSUNNY   78  68  71 CALM      30.16S
EASTON         MOSUNNY   81  68  65 NE6       30.19S
CAMBRIDGE      MOSUNNY   79  66  65 E3        30.15S
SALISBURY      MOSUNNY   78  69  73 CALM      30.15S
OCEAN CITY     MOSUNNY   76  69  79 SE5       30.16S
WALLOPS ISLAND MOSUNNY   78  70  76 CALM      30.16S
ACCOMACK*      PTSUNNY   79  72  78 CALM      30.15S
$$

NCZ012>017-030>032-051700-
NORTH CENTRAL AND EASTERN NORTH CAROLINA

CITY           SKY/WX    TMP DP  RH WIND       PRES   REMARKS
ROANOKE RAPIDS FAIR      84  70  61 W3        30.12F
RALEIGH        PTSUNNY   87  73  62 SW8       30.12F
ELIZABETH CITY MOSUNNY   84  74  71 VRB6      30.13S
AHOSKIE*       MOSUNNY  N/A N/A N/A CALM      30.13S
EDENTON*         N/A     83  74  75 SW7       30.14S
CURRITUCK*     MOSUNNY   83  71  68 NE8       30.14S
KILL DEVIL HLS SUNNY     85  74  68 SW3       30.14S
MANTEO         SUNNY     81  73  75 W3        30.15S
CAPE HATTERAS  MOSUNNY   81  72  74 SW13      30.16R
TARBORO*         N/A     88  72  60 SW6       30.13S
GOLDSBORO      MOSUNNY   86  73  63 SW8       30.10F
WASHINGTON     MOSUNNY   85  73  67 S3        30.14S
GREENVILLE     PTSUNNY   86  73  66 SW5       30.14S
NEW BERN       MOSUNNY   87  72  60 VRB3      30.15S
WILMINGTON     SUNNY     86  69  56 VRB6      30.15S
$$

VAZ048-051700-
ELSEWHERE

CITY           SKY/WX    TMP DP  RH WIND       PRES   REMARKS
HARRISBURG PA  CLOUDY    76  65  68 CALM      30.15F
BALTIMORE      PTSUNNY   77  65  66 VRB3      30.15S
ANNAPOLIS      MOSUNNY   76  66  71 SE7       30.15S
ANDREWS AFB    PTSUNNY   76  74  96 SE5       30.15F
PHILADELPHIA   PTSUNNY   79  62  56 S5        30.15S
HENDERSON NC   PTSUNNY   80  68  65 CALM      30.13F
GREENSBORO     CLOUDY    81  69  67 SW3       30.13S
ROCKY MOUNT    MOSUNNY   88  72  58 S5        30.11F
$$

VAZ100-051700-
MARINE

STATION/POSITION TIME  TEMP    WIND        PRES    WAVE   SWELL
                       AIR SEA DIR/SP/G            HT/PER HT/PER
                 (UTC) (F)     (DEG/KT/KT) (MB)    (FT/S) (FT/S)
BRANDYWINE LGT   1500   72 74  180/  3/  3 1021.4R
CAPE MAY NJ      1500   73 76  240/  7/  8 1020.8R
LEWES DE         1500   74 73   90/  6/  7 1021.1R
15NM E FENWICK I 1550   73 74              1021.0R   3/ 7
OCEAN-CITY-INLET 1500   74 74  110/  4/  5 1021.1R
WACHAPREAGUE VA  1500   76 79   80/  6/  7 1021.2R
GOOSES REEF MD   1600   76 79   CALM  /  4 1022.1F
COVE POINT MD    1500   74     100/  3/  4 1021.8R
SOLOMONS ISLAND  1500      79                N/A
BISHOPS HEAD MD  1500   75     130/  2/  5 1021.0R
PINEY POINT MD   1500          140/  5/  5   N/A
CAMBRIDGE MD     1500   75 79   90/  4/  5 1020.9R
LEWISETTA VA     1500   76 79   90/  5/  7 1020.8R
RAPPAHANNOCK LGT 1500           20/  5/  5 1021.5R
STINGRAY PT      1600   77 80   70/  6/  8 1021.1R   1/ 2
YORK RVR RNG VA  1500   79     100/  4/  5 1020.2R
YORKTOWN VA      1500   78 79   80/  6/  7 1020.4R
JAMESTOWN VA     1600   80 82  120/  8/ 12   N/A
DOMINION TERM VA 1500   78     120/  7/ 10 1020.5R
KIPTOPEKE VA     1500      83  100/  6/ 12   N/A
CHES BAY BRIDGE  1500   76 77   70/  9/ 10 1020.2R
CAPE HENRY VA    1500   76      60/  8/  9   N/A
CHESAPEAKE LGHT  1500   76      60/  9/ 10 1021.3R
WILLOUBY STN VA  1500   77      70/  5/  6 1021.6R
CAPE HENRY BUOY  1528      78                N/A     3/ 6
1ST LANDING BUOY 1600      77              1020.5R   1/ 6
CAPE CHARLES BUO 1526      76                N/A     2/ 6   2/ 6
OFFSHORE WE BUOY 1511      77                N/A     3/ 7   3/ 7
64NM E OF VA BCH 1550   76 78   70/  6/  6 1020.5R   4/ 7   3/ 7
DUCK PIER NC     1500   79 77  260/  4/  6   N/A
44100 DUCK FRF   1524      79                N/A     2/ 6
44056 DUCK FRF   1511      78                N/A     2/ 9
OREGON INLET NC  1500   80 79  230/  6/  7 1020.6R
HATTERAS NC      1500   81 79  220/ 11/ 15 1020.8R
DIAMOND SHLS NC  1550   80 81  240/ 16/ 17 1020.8R   4/ 6   2/ 9
CAPE LOOKOUT NC  1600   82     220/ 11/ 13 1020.9R
$$


USA.gov is the U.S. government's official web portal to all federal, state and local government web resources and services.